Location: Gairloch Mountain Observatory
(46.1383°N, 60.9640°W)
Time: 15:36:09
(UTC-04:00)

CENTAUR R/B - Visible Passes

Search period start: 20 February 2018 00:00
Search period end: 02 March 2018 00:00
Orbit: 817 x 1371 km, 63.5° (Epoch: 18 February)

Date Brightness Start Highest point End Pass type
(mag) Time Alt. Az. Time Alt. Az. Time Alt. Az.
20 Feb 4.8 02:04:13 24° ENE 02:04:13 24° ENE 02:07:55 10° E visible
20 Feb 2.9 03:51:30 79° WNW 03:52:04 86° SW 04:00:35 10° SE visible
20 Feb 4.1 05:38:46 18° WNW 05:42:04 23° WSW 05:48:19 10° SSW visible
20 Feb 2.4 19:27:35 10° SSW 19:33:38 77° SE 19:39:09 17° NE visible
20 Feb 4.0 21:19:17 10° W 21:25:03 33° NNW 21:26:24 31° N visible
20 Feb 5.3 23:13:06 10° NW 23:13:40 12° NW 23:13:40 12° NW visible
21 Feb 3.7 03:06:09 48° ESE 03:06:09 48° ESE 03:12:08 10° SE visible
21 Feb 3.5 04:53:27 36° WSW 04:54:12 37° WSW 05:01:42 10° S visible
21 Feb 2.8 18:39:52 10° S 18:45:35 47° ESE 18:52:07 10° NE visible
21 Feb 3.5 20:30:20 10° WSW 20:36:20 45° NW 20:40:44 21° NNE visible
21 Feb 4.8 22:23:54 10° WNW 22:27:59 21° NNW 22:27:59 21° NNW visible
22 Feb 4.9 02:21:01 20° ESE 02:21:01 20° ESE 02:23:17 10° ESE visible
22 Feb 3.5 04:08:19 45° SSW 04:08:19 45° SSW 04:14:21 10° SSE visible
22 Feb 4.6 05:55:38 12° WSW 05:55:38 12° WSW 05:58:14 10° WSW visible
22 Feb 2.9 19:41:42 10° SW 19:47:49 64° NW 19:54:51 10° NE visible
22 Feb 4.5 21:34:37 10° WNW 21:39:59 25° NNW 21:42:05 22° N visible
22 Feb 5.2 23:28:08 10° NW 23:29:19 14° NNW 23:29:19 14° NNW visible
23 Feb 4.5 03:23:21 26° SSE 03:23:21 26° SSE 03:26:28 10° SSE visible
23 Feb 4.5 05:10:39 18° SW 05:10:39 18° SW 05:13:41 10° SSW visible
23 Feb 2.5 18:53:26 10° SW 18:59:30 85° SE 19:06:33 10° NE visible
23 Feb 4.2 20:45:24 10° W 20:51:05 31° NNW 20:55:59 15° NNE visible
23 Feb 4.9 22:39:13 10° NW 22:43:12 20° NNW 22:43:12 20° NNW visible
24 Feb 4.8 04:25:45 16° SSW 04:25:45 16° SSW 04:27:18 10° S visible
24 Feb 2.7 18:05:36 10° SSW 18:11:25 53° ESE 18:18:06 10° NE visible
24 Feb 3.7 19:56:22 10° WSW 20:02:20 41° NW 20:09:08 10° NNE visible
24 Feb 4.7 21:50:02 10° WNW 21:55:08 21° N 21:56:57 19° N visible
24 Feb 5.2 23:42:46 10° NW 23:44:09 15° NNW 23:44:09 15° NNW visible
25 Feb 3.1 19:07:39 10° WSW 19:13:46 59° NW 19:20:49 10° NE visible
25 Feb 4.6 21:00:46 10° WNW 21:06:04 24° NNW 21:10:34 14° NNE visible
25 Feb 4.9 22:54:10 10° NW 22:57:46 20° N 22:57:46 20° N visible
26 Feb 2.7 18:19:17 10° SW 18:25:24 87° NW 18:32:29 10° NE visible
26 Feb 4.3 20:11:31 10° W 20:17:07 29° NNW 20:23:26 10° NNE visible
26 Feb 4.8 22:05:18 10° NW 22:10:23 20° N 22:11:18 20° N visible
26 Feb 5.2 23:57:06 10° NNW 23:58:29 15° NNW 23:58:29 15° NNW visible
27 Feb 3.9 19:22:27 10° WSW 19:28:20 38° NW 19:35:03 10° NNE visible
27 Feb 4.7 21:16:11 10° NW 21:21:15 21° N 21:24:45 15° NNE visible
27 Feb 4.9 23:08:43 10° NNW 23:11:56 21° N 23:11:56 21° N visible
28 Feb 3.4 18:33:39 10° WSW 18:39:43 54° NW 18:46:44 10° NE visible
28 Feb 4.6 20:26:54 10° WNW 20:32:09 23° NNW 20:37:57 10° NE visible
28 Feb 4.7 22:20:10 10° NW 22:25:20 22° N 22:25:20 22° N visible
01 Mar 5.2 00:11:16 10° NNW 00:12:32 16° NNW 00:12:32 16° NNW visible
01 Mar 4.4 19:37:39 10° W 19:43:11 28° NNW 19:49:22 10° NNE visible
01 Mar 4.7 21:31:22 10° NW 21:36:31 20° N 21:38:43 18° NNE visible
01 Mar 4.8 23:23:01 10° NNW 23:25:53 22° NNW 23:25:53 22° NNW visible
